Regional Weather Roundup
Issued by NWS Albany, NY

Home | Current Version | Previous Version | Text Only | Print | Product List | Glossary On
Versions: 1 2 3 4 5 6 7 8 9 10 11 12 13 14 15 16 17 18 19 20 21 22 23 24 25 26 27 28 29 30 31 32 33 34 35 36 37 38 39 40 41 42 43 44 45 46 47 48 49 50
000
ASUS41 KALY 291510
RWRALY

NEW YORK STATE HOURLY WEATHER ROUNDUP
NATIONAL WEATHER SERVICE ALBANY NY
1100 AM EDT FRI MAY 29 2015

NOTE: "FAIR" INDICATES FEW OR NO CLOUDS BELOW 12,000 FEET WITH NO
SIGNIFICANT WEATHER AND/OR NO OBSTRUCTIONS TO VISIBILITY.

NYZ032-033-038>043-046>054-057>066-NYZ062>081-291600-
EAST


CITY           SKY/WX    TMP DP  RH WIND       PRES   REMARKS
ALBANY         MOSUNNY   74  55  51 CALM      30.30F
GLENS FALLS    SUNNY     71  55  56 CALM      30.30F
POUGHKEEPSIE   SUNNY     76  58  53 N5        30.29F
NEWBURGH       SUNNY     72  59  64 VRB5      30.31F
MONTGOMERY     SUNNY     74  60  61 N7        30.30F
WHITE PLAINS   MOSUNNY   74  55  51 SW3       30.29F
ISLIP          MOSUNNY   75  56  51 CALM      30.28R
NEW YORK CITY  MOSUNNY   74  55  51 NE9       30.29F
CENTRAL PARK   SUNNY     74  54  49 E5        30.32F
$$

NYZ005>009-017-018-044>046-055-056-291600-
CENTRAL


CITY           SKY/WX    TMP DP  RH WIND       PRES   REMARKS
FULTON         SUNNY     74  57  55 VRB7      30.27F
SYRACUSE       PTSUNNY   76  53  44 S9        30.26F
ROME           SUNNY     72  55  55 VRB3      30.29F
ELMIRA         SUNNY     73  56  54 VRB6      30.27F
BINGHAMTON     SUNNY     68  53  58 SE6       30.30F
MONTICELLO     SUNNY     70  57  64 E6        30.33F
$$

NYZ026>034-041>043-291600-
NORTH


CITY           SKY/WX    TMP DP  RH WIND       PRES   REMARKS
WATERTOWN      SUNNY     74  58  57 W8        30.25F
FORT DRUM      NOT AVBL
MASSENA        SUNNY     73  57  57 VRB3      30.27F
SARANAC LAKE   SUNNY     68  52  56 CALM      30.28F
PLATTSBURGH    SUNNY     67  59  75 SE8       30.29F
$$

NYZ001>004-010>016-019>021-291600-
WEST


CITY           SKY/WX    TMP DP  RH WIND       PRES   REMARKS
NIAGARA FALLS  CLOUDY    77  53  43 S6        30.21F
BUFFALO        PTSUNNY   78  53  41 S13       30.22F
DUNKIRK        PTSUNNY   78  57  48 S14G23    30.20F
JAMESTOWN      PTSUNNY   72  54  53 SE12      30.26F
WELLSVILLE     SUNNY     72  51  47 SE8G16    30.31S
ROCHESTER      CLOUDY    75  55  49 S8        30.24F
PENN YAN       SUNNY     74  54  49 SW8       30.27F
$$

             KEY
       WCI = WIND CHILL INDEX
       VSB = VISIBILITY
       HX  = HEAT INDEX
$$


USA.gov is the U.S. government's official web portal to all federal, state and local government web resources and services.